Location: Wallasey
(53.4265°N, 3.0662°W)
Time: 16:43:18
(UTC+01:00)

NOAA 18 - Pass Details

Date: 20 September 2019
Orbit: 840 x 861 km, 99.1° (Epoch: 20 October)

Event Time Altitude Azimuth Distance (km) Brightness Sun altitude
Exits shadow 21:36:46 17° 181° (S) 2,055 6.9 -20.6°
Maximum altitude 21:41:04 59° 258° (WSW) 987 5.7 -21.1°
Drops below altitude 10° 21:46:35 10° 338° (NNW) 2,512 8.4 -21.8°
Sets 21:49:01 0° 342° (NNW) 3,454 9.2 -22.1°
